[[{"header":{"parameterUnit":"m.s-1","parameterCategory":1,"la1":30.2991,"la2":30.254,"lo1":-89.0895,"lo2":-89.0444,"dy":0.0017,"dx":0.0017,"nx":28,"ny":28,"refTime":"2025-09-03T09:00:00:Z","depth":0,"parameterNumber":2,"parameterNumberName":"U-component_of_WINDS"},"data":[0,0,0,0,0,0,0,0,0,0,0,0,0,0,0,0,0,0,0,0,0,0,0,0,0,0,0,0,0,0,0,0,0,0,0,0,0,0,0,0,0,0,0,0,0,0,0,0,0,0,0,0,0,0,0,0,0,0,0.743,0.743,0,0.7453,0.7453,0.7453,0.7486,0.7487,0.7488,0.7488,0.7509,0.7509,0.751,0,0,0,0,0,0,0,0,0,0,0,0,0,0.7413,0.7413,0.743,0.743,0.743,0.7453,0.7453,0.7454,0.7486,0.7487,0.7488,0.7488,0.7509,0.7509,0.751,0,0,0,0,0,0,0,0,0,0,0,0,0,0.7427,0.7413,0.743,0.745,0.7452,0.7453,0.7453,0.7454,0.7486,0.7487,0.7488,0.7489,0.7509,0.7509,0.751,0.7493,0,0,0.751,0.751,0,0,0,0,0,0,0,0,0.7426,0.7427,0.7446,0.7448,0.7451,0.7468,0.7455,0.7467,0.7486,0.7473,0.7488,0.7489,0.7495,0.7496,0.7498,0.7494,0.7494,0.751,0.751,0.751,0.751,0,0,0,0,0,0,0,0.7425,0.7426,0.7439,0.7447,0.7449,0.7457,0.746,0.7457,0.7479,0.7474,0.7477,0.7479,0.7496,0.7498,0.7499,0.7495,0.751,0.751,0.751,0.751,0.7478,0.7477,0,0,0,0,0,0,0.7421,0.7425,0.7438,0.744,0.744,0.7457,0.746,0.7461,0.7479,0.7482,0.7478,0.7481,0.7498,0.7499,0.75,0.7481,0.751,0.751,0.751,0.7478,0.7477,0.7476,0,0,0,0,0,0,0.7421,0.7422,0.7437,0.7433,0.7436,0.7456,0.7457,0.7461,0.7464,0.7482,0.7486,0.7477,0.7498,0.75,0.7494,0.7482,0.751,0.751,0.7479,0.7478,0.7477,0.7443,0,0,0,0,0,0,0.742,0.7422,0.7416,0.7433,0.7436,0.7431,0.7457,0.7461,0.7464,0.7467,0.7481,0.7485,0.7499,0.7494,0.7494,0.7483,0.751,0.7481,0.7479,0.7477,0.7445,0.7441,0.7437,0,0,0,0,0,0.7419,0.7404,0.7415,0.7416,0.7429,0.7431,0.7432,0.745,0.7463,0.7457,0.7469,0.7484,0.7484,0.7493,0.7494,0.7482,0.7481,0.7479,0.7477,0.7447,0.7442,0.7437,0,0,0,0,0,0,0.7384,0.7407,0.7419,0.7409,0.7418,0.7436,0.7429,0.7444,0.7448,0.7451,0.7472,0.7475,0.7467,0.7474,0.7484,0.7467,0.7485,0.7483,0.7462,0.7457,0.7453,0.745,0.751,0,0,0,0,0,0.7375,0.7375,0.7396,0.7385,0.7389,0.7408,0.741,0.7423,0.7432,0.7436,0.7447,0.7455,0.7457,0.7458,0.746,0.7447,0.7451,0.744,0.7435,0.7432,0.7429,0.7423,0.7418,0.747,0.747,0.747,0,0,0.7356,0.7369,0.7368,0.7378,0.7386,0.7386,0.7411,0.7409,0.7408,0.7435,0.7431,0.744,0.745,0.7441,0.7437,0.7447,0.7416,0.7429,0.7426,0.7426,0.742,0.7415,0.7411,0.7469,0.7469,0.7469,0,0,0.7322,0.7332,0.7325,0.7333,0.7345,0.7359,0.7357,0.7374,0.7381,0.7377,0.7397,0.7397,0.74,0.7406,0.741,0.738,0.7394,0.738,0.7357,0.7351,0.7347,0.7343,0.7332,0.7328,0.7378,0.7378,0.7378,0,0.7297,0.7297,0.7319,0.7316,0.732,0.7346,0.7338,0.7345,0.7357,0.7359,0.737,0.7374,0.7383,0.7376,0.7368,0.7371,0.7369,0.7378,0.7346,0.7343,0.734,0.7329,0.7325,0.7376,0.7376,0.7377,0.7377,0,0.7266,0.7266,0.7258,0.727,0.7274,0.7268,0.7289,0.7289,0.7303,0.7315,0.7311,0.7323,0.7328,0.7328,0.7341,0.7322,0.7328,0.7342,0.7361,0.7332,0.7323,0.7319,0.7374,0.7374,0.7375,0.7375,0,0,0.7207,0.7233,0.723,0.7236,0.7253,0.7253,0.7249,0.7256,0.7255,0.7264,0.7261,0.7263,0.7277,0.7281,0.7295,0.729,0.7265,0.7305,0.7305,0.7296,0.7245,0.7233,0.7227,0.7275,0.7274,0.7274,0.7243,0,0.7174,0.717,0.719,0.7179,0.718,0.7205,0.7202,0.7212,0.7223,0.7225,0.7238,0.7239,0.7257,0.726,0.7256,0.7268,0.7254,0.7271,0.7271,0.7271,0.7266,0.7223,0.721,0.718,0.724,0.7239,0.7239,0,0.7135,0.7143,0.7133,0.7151,0.7152,0.7149,0.7157,0.7158,0.717,0.7179,0.7185,0.7201,0.7199,0.7218,0.7214,0.7225,0.7227,0.7233,0.7232,0.7231,0.7252,0.7219,0.7171,0.7166,0.7233,0.7234,0.7234,0,0.7092,0.71,0.7095,0.71,0.7121,0.7119,0.7127,0.714,0.7143,0.715,0.7152,0.7159,0.7162,0.7166,0.7184,0.7197,0.7178,0.7199,0.7184,0.7184,0.7177,0.7177,0.7127,0.7181,0.7181,0.7181,0.7181,0,0.7053,0.7046,0.7076,0.7073,0.7066,0.7089,0.7081,0.7092,0.7104,0.7103,0.7126,0.7124,0.7149,0.715,0.7165,0.7159,0.716,0.7167,0.717,0.7164,0.7163,0.7164,0.7165,0.718,0.718,0.7181,0.7181,0,0.7002,0.7023,0.7019,0.7041,0.7046,0.704,0.7058,0.7055,0.707,0.7068,0.7069,0.7091,0.7094,0.7113,0.7119,0.7129,0.7117,0.7126,0.7113,0.7116,0.71,0.71,0.7047,0.7041,0.71,0.7099,0.7099,0,0.6975,0.697,0.6992,0.6994,0.7002,0.7004,0.7007,0.7031,0.7034,0.7048,0.7044,0.7049,0.7054,0.7057,0.7073,0.7078,0.7086,0.7067,0.7086,0.708,0.7084,0.7083,0.7083,0.7062,0.7061,0.7061,0.706,0,0.6924,0.6935,0.694,0.6948,0.6953,0.696,0.6969,0.6969,0.6995,0.6997,0.7001,0.7005,0.7013,0.7017,0.7026,0.7034,0.7051,0.7054,0.7051,0.7043,0.7036,0.7038,0.71,0.7055,0.7055,0.7056,0.7056,0.7056,0.6883,0.688,0.6895,0.69,0.691,0.6918,0.6917,0.6932,0.6936,0.6945,0.6959,0.696,0.6973,0.6987,0.6994,0.6996,0.7005,0.7001,0.6999,0.6997,0.6994,0.7037,0.6997,0.6998,0.6998,0.6998,0.6998,0,0.6832,0.6844,0.6848,0.6861,0.6865,0.6883,0.6894,0.6896,0.6897,0.6909,0.6914,0.6918,0.6923,0.694,0.6947,0.6944,0.6952,0.6945,0.6944,0.6946,0.6985,0.6987,0.6939,0.6939,0.6939,0.6939,0.6939,0.6939,0.6806,0.6802,0.6815,0.6816,0.6827,0.683,0.6835,0.6843,0.6852,0.6856,0.6861,0.6873,0.6886,0.6894,0.6899,0.6904,0.6905,0.6895,0.6902,0.6938,0.6943,0.6949,0.695,0.6895,0.6895,0.6862,0.6862,0.6862]},{"header":{"parameterUnit":"m.s-1","parameterCategory":1,"la1":30.2991,"la2":30.254,"lo1":-89.0895,"lo2":-89.0444,"dy":0.0017,"dx":0.0017,"nx":28,"ny":28,"refTime":"2025-09-03T09:00:00:Z","depth":0,"parameterNumber":3,"parameterNumberName":"V-component_of_WINDS"},"data":[0,0,0,0,0,0,0,0,0,0,0,0,0,0,0,0,0,0,0,0,0,0,0,0,0,0,0,0,0,0,0,0,0,0,0,0,0,0,0,0,0,0,0,0,0,0,0,0,0,0,0,0,0,0,0,0,0,0,3.6013,3.6014,0,3.6069,3.607,3.607,3.6112,3.6112,3.6113,3.6113,3.6165,3.6166,3.6167,0,0,0,0,0,0,0,0,0,0,0,0,0,3.5935,3.5936,3.6013,3.6014,3.6014,3.6069,3.607,3.6071,3.6112,3.6112,3.6113,3.6113,3.6165,3.6166,3.6167,0,0,0,0,0,0,0,0,0,0,0,0,0,3.5978,3.5937,3.6013,3.6042,3.6045,3.6069,3.607,3.6071,3.6112,3.6112,3.6113,3.6113,3.6164,3.6166,3.6167,3.6165,0,0,3.6172,3.6172,0,0,0,0,0,0,0,0,3.5975,3.598,3.6037,3.604,3.6043,3.6084,3.6061,3.6102,3.6112,3.6086,3.6113,3.6114,3.6137,3.6141,3.615,3.6168,3.617,3.6172,3.6173,3.6174,3.6174,0,0,0,0,0,0,0,3.5972,3.5978,3.6035,3.6038,3.6042,3.605,3.6056,3.6069,3.6108,3.6088,3.6092,3.6098,3.6139,3.6148,3.6152,3.6171,3.6172,3.6173,3.6174,3.6175,3.6188,3.6187,0,0,0,0,0,0,3.5966,3.5975,3.6033,3.6037,3.601,3.6051,3.6058,3.607,3.6108,3.6114,3.6097,3.61,3.6146,3.615,3.6154,3.6153,3.6174,3.6175,3.6176,3.6188,3.6188,3.6187,0,0,0,0,0,0,3.5964,3.597,3.6031,3.6007,3.6015,3.6051,3.6065,3.6071,3.6081,3.6115,3.6121,3.6101,3.6146,3.6151,3.6162,3.6156,3.6176,3.6177,3.6189,3.6188,3.6187,3.6153,0,0,0,0,0,0,3.5961,3.5969,3.5971,3.6007,3.6017,3.604,3.6065,3.6072,3.6084,3.6088,3.6119,3.6125,3.6147,3.616,3.6164,3.6158,3.6178,3.619,3.6189,3.6187,3.6155,3.6151,3.6147,0,0,0,0,0,3.5958,3.5958,3.5971,3.5977,3.6019,3.604,3.6045,3.6073,3.6083,3.6084,3.6105,3.6124,3.6156,3.616,3.6165,3.616,3.619,3.6189,3.6188,3.6156,3.6151,3.6148,0,0,0,0,0,0,3.5918,3.5963,3.5978,3.599,3.6011,3.6047,3.6049,3.6067,3.6084,3.6087,3.6118,3.6125,3.6132,3.6147,3.6151,3.6159,3.6175,3.6175,3.6149,3.6145,3.6142,3.6138,3.618,0,0,0,0,0,3.5911,3.5927,3.5964,3.597,3.598,3.6013,3.6023,3.6042,3.6064,3.6073,3.6095,3.6115,3.6129,3.6138,3.6153,3.6157,3.6163,3.6155,3.6152,3.6149,3.6148,3.615,3.6146,3.6183,3.6183,3.6183,0,0,3.5896,3.5922,3.593,3.5963,3.5982,3.5995,3.602,3.6033,3.6042,3.6074,3.6087,3.6103,3.6127,3.6134,3.6138,3.6146,3.6139,3.6147,3.6144,3.6145,3.6148,3.6144,3.6141,3.6182,3.6182,3.6182,0,0,3.5875,3.5897,3.5905,3.5923,3.5952,3.5973,3.5975,3.6008,3.6021,3.6034,3.6058,3.6068,3.6092,3.6108,3.6119,3.6102,3.612,3.6106,3.6088,3.6089,3.6086,3.6084,3.6077,3.6074,3.6105,3.6105,3.6105,0,3.5852,3.5875,3.5906,3.5917,3.593,3.5962,3.5968,3.5984,3.6015,3.6022,3.6032,3.6062,3.608,3.6091,3.6087,3.6095,3.6096,3.6103,3.6084,3.6082,3.608,3.6074,3.6072,3.6103,3.6103,3.6104,3.6104,0,3.5845,3.586,3.5862,3.5893,3.5906,3.5915,3.5945,3.5954,3.5971,3.5991,3.6002,3.6025,3.6045,3.6048,3.6065,3.606,3.6065,3.6079,3.6095,3.6075,3.6069,3.6067,3.6101,3.6101,3.6102,3.6102,0,0,3.5802,3.5849,3.585,3.5864,3.5897,3.5908,3.5917,3.5938,3.5944,3.5964,3.5971,3.5991,3.6004,3.6016,3.6034,3.6035,3.602,3.6049,3.605,3.6043,3.6015,3.6004,3.6001,3.6031,3.6031,3.603,3.6013,0,3.5786,3.5807,3.5834,3.5844,3.5857,3.5886,3.5894,3.5913,3.5931,3.5943,3.5962,3.5975,3.5992,3.5999,3.6002,3.6021,3.6014,3.6023,3.6037,3.6037,3.603,3.5999,3.5988,3.597,3.6011,3.6011,3.6011,0,3.5771,3.5791,3.5803,3.5834,3.5841,3.5847,3.5868,3.588,3.5902,3.5914,3.5928,3.5947,3.5956,3.5971,3.5982,3.5987,3.5994,3.6004,3.6004,3.6007,3.6023,3.6,3.5965,3.5963,3.6008,3.6008,3.6008,0,3.5738,3.5767,3.5778,3.5789,3.5826,3.5829,3.5844,3.5867,3.5878,3.5895,3.5901,3.5918,3.5928,3.594,3.5963,3.5971,3.5971,3.5988,3.598,3.598,3.598,3.5979,3.5945,3.5984,3.5984,3.5984,3.5984,0,3.5718,3.5724,3.5764,3.5771,3.5777,3.5807,3.5812,3.5829,3.5849,3.5858,3.5883,3.589,3.592,3.5931,3.5948,3.5954,3.5958,3.5968,3.5972,3.5966,3.5964,3.5971,3.5972,3.5983,3.5983,3.5983,3.5984,0,3.5682,3.5709,3.5723,3.5757,3.5765,3.5768,3.5796,3.5802,3.5821,3.5832,3.5836,3.5865,3.5878,3.5902,3.5922,3.5933,3.5936,3.5944,3.5929,3.5932,3.5923,3.5923,3.5892,3.5889,3.5929,3.5929,3.5928,0,3.5668,3.5673,3.5707,3.5716,3.5731,3.5744,3.5755,3.5783,3.5793,3.5818,3.582,3.5836,3.585,3.5869,3.5891,3.5905,3.5914,3.5902,3.5916,3.5909,3.5913,3.5913,3.5913,3.5898,3.5898,3.5897,3.5897,0,3.5639,3.5652,3.5668,3.5688,3.5701,3.5717,3.5735,3.574,3.5771,3.5781,3.5796,3.5806,3.5827,3.5841,3.5859,3.5872,3.5889,3.5892,3.5891,3.5885,3.5876,3.588,3.592,3.5893,3.5893,3.5894,3.5894,3.5894,3.5614,3.5619,3.5644,3.5661,3.5677,3.5693,3.57,3.572,3.5733,3.5753,3.5768,3.5781,3.5801,3.5827,3.5839,3.5848,3.5856,3.5855,3.5854,3.5854,3.5851,3.5874,3.5851,3.5851,3.5851,3.5851,3.5852,0,3.5586,3.5603,3.5618,3.5642,3.5654,3.5671,3.5691,3.5699,3.5711,3.5729,3.5743,3.5758,3.5772,3.5794,3.5809,3.5812,3.582,3.5815,3.5815,3.5818,3.5843,3.5842,3.5808,3.5808,3.5808,3.5808,3.5808,3.5808,3.5573,3.5584,3.5599,3.5617,3.5634,3.5648,3.5658,3.5672,3.5686,3.5703,3.5715,3.573,3.5749,3.5766,3.5778,3.5784,3.5788,3.5781,3.5789,3.5812,3.5816,3.582,3.5819,3.5781,3.5781,3.5763,3.5763,3.5763]}]]